Regional Weather Roundup
Issued by NWS Glasgow, MT

Home | Current Version | Previous Version | Text Only | Print | Product List | Glossary On
Versions: 1 2 3 4 5 6 7 8 9 10 11 12 13 14 15 16 17 18 19 20 21 22 23 24 25 26 27 28 29 30 31 32 33 34 35 36 37 38 39 40 41 42 43 44 45 46 47 48
000
ASUS45 KGGW 282315
RWRGGW
HOURLY WEATHER ROUNDUP FOR NORTHEAST MONTANA
NATIONAL WEATHER SERVICE GLASGOW MONTANA
500 PM MDT THU AUG 28 2014

NOTE: "FAIR" INDICATES FEW OR NO CLOUDS BELOW 12,000 FEET WITH NO
SIGNIFICANT WEATHER AND/OR OBSTRUCTIONS TO VISISBILITY.

NORTHEAST MONTANA


CITY           SKY/WX    TMP DP  RH WIND       PRES   REMARKS
GLASGOW        MOSUNNY   87  48  25 NW13      29.81F
PLENTYWOOD       N/A     87  40  19 W20         N/A
WOLF POINT     MOSUNNY   89  49  25 SW10G21   29.80F
JORDAN           N/A     88  41  19 W17       29.85F
WINNETT          N/A     87  48  25 N7          N/A
SIDNEY           N/A     88  54  31 NW3       29.80F
GLENDIVE       MOSUNNY   86  52  30 W12       29.84S
MALTA            N/A     85  49  28 NW14        N/A

FORT PECK REPORTS


CITY           SKY/WX    TMP DP  RH WIND       PRES   REMARKS
FORT PECK        N/A     88  49  25 W13         N/A
THE PINES        N/A     88  42  20 W6          N/A

SOUTHEAST MONTANA


CITY           SKY/WX    TMP DP  RH WIND       PRES   REMARKS
BILLINGS       MOSUNNY   88  43  20 W14       29.93F
MILES CITY     MOSUNNY   90  46  21 NW9       29.85F
BAKER          MOSUNNY   85  48  27 W8G17     29.89F
LIVINGSTON     SUNNY     87  38  17 W12G18    29.98F

CENTRAL MONTANA


CITY           SKY/WX    TMP DP  RH WIND       PRES   REMARKS
HAVRE          SUNNY     85  51  31 MISG      29.85F
LEWISTOWN      MOSUNNY   84  42  22 NW9G17    29.95F
GREAT FALLS    MOSUNNY   85  41  21 W20G26    29.89F
CUT BANK       PTSUNNY   77  50  38 E6        29.92F
HELENA         SUNNY     87  38  17 W13G22    29.93F
BUTTE          MOSUNNY   80  37  21 W8        30.06F
BOZEMAN        SUNNY     84  42  22 CALM      29.98F

WESTERN MONTANA


CITY           SKY/WX    TMP DP  RH WIND       PRES   REMARKS
MISSOULA       MOSUNNY   84  35  17 W21       29.96S
KALISPELL      NOT AVBL

NORTH DAKOTA


CITY           SKY/WX    TMP DP  RH WIND       PRES   REMARKS
WILLISTON      PTSUNNY   90  54  29 S10       29.77F
DICKINSON      MOSUNNY   84  54  35 NW6       29.84F
MINOT          MOSUNNY   85  57  38 S12       29.78F
BISMARCK       CLOUDY    75  67  76 SE9       29.86S

SOUTHERN SASKATCHEWAN


CITY           SKY/WX    TMP DP  RH WIND       PRES   REMARKS
REGINA         MOSUNNY   79  63  57 N15       29.76F
MOOSE JAW      MOSUNNY   77  57  50 N17G23    29.80R
ESTEVAN        MOSUNNY   84  57  39 SW5       29.74F
SWIFT CURRENT  SUNNY     75  54  46 N15G22    29.85S



USA.gov is the U.S. government's official web portal to all federal, state and local government web resources and services.